Wind_Speed
22 19 19 19 18 17 17 14 12 11 11 11 12 13 11 13 15 13 10 10 11 8 11 9 9 8 7 7 7 9 9 8 10 12 13 12 14 16 18 18 14 12 10
25 24 24 22 23 23 21 21 18 16 13 12 13 17 18 17 15 16 13 13 14 11 10 13 11 9 8 8 7 9 11 8 7 9 10 8 10 12 13 13 13 15 15
37 30 28 27 26 25 27 25 23 23 20 17 15 16 17 18 19 20 23 15 17 14 11 10 14 12 10 7 6 5 7 8 6 5 5 9 8 8 9 6 10 12 14
37 34 29 25 28 27 26 24 26 28 26 23 19 18 19 17 18 19 21 18 18 18 16 14 14 15 14 11 7 6 5 5 5 4 4 5 10 8 10 3 7 6 4
40 40 36 37 32 30 30 26 20 17 22 32 27 24 25 24 21 20 20 20 20 22 20 20 17 15 15 15 10 8 5 3 4 1 2 6 13 15 12 8 7 6 7
46 40 34 48 42 39 38 30 28 29 21 27 33 36 35 30 27 24 25 21 24 25 24 25 24 20 17 15 13 11 11 7 4 5 3 8 12 13 16 14 12 11 7
56 54 54 56 51 45 42 34 33 36 36 26 28 35 38 32 29 27 28 28 28 28 27 29 30 26 21 20 19 15 13 12 9 7 7 9 16 17 21 21 18 14 11
59 55 55 53 51 47 48 42 39 36 35 33 28 36 33 33 33 35 36 35 34 33 30 29 30 30 28 23 22 21 19 15 15 12 10 11 13 17 23 28 29 25 23
68 59 59 60 57 55 57 52 50 48 41 46 43 39 37 43 47 46 43 44 43 39 37 34 34 32 31 29 27 25 24 21 19 19 14 13 13 14 17 19 22 27 27
72 73 68 67 67 62 59 60 65 60 51 53 53 55 59 47 53 47 47 44 44 41 38 38 39 37 34 31 31 30 30 26 24 24 23 19 15 15 18 21 23 24 23
84 81 77 76 76 74 69 65 75 69 63 61 63 64 62 63 62 58 53 50 50 43 41 44 43 39 35 34 34 34 37 30 28 28 28 24 18 18 20 24 23 24 24
102 100 94 87 82 83 79 80 78 80 77 73 71 70 71 71 68 65 63 59 55 48 46 46 47 41 39 35 35 37 38 36 32 31 31 29 22 20 20 24 26 23 22
102 105 106 104 98 93 94 89 89 86 83 80 80 80 82 78 72 69 67 65 58 53 50 48 46 46 42 39 36 36 37 39 37 34 33 33 26 22 23 23 25 26 23
103 103 106 108 108 104 97 97 87 90 89 90 89 84 82 82 78 75 72 70 62 59 56 58 52 51 47 42 39 37 36 37 37 38 37 34 28 28 28 26 26 27 26
108 107 106 105 107 108 111 111 105 93 92 89 86 86 86 86 86 85 84 78 70 62 60 63 61 52 48 42 41 38 36 37 37 39 39 38 33 30 32 30 30 29 27
114 113 112 111 109 109 110 112 115 116 106 97 96 82 88 84 85 84 83 82 75 70 66 65 66 60 55 50 45 44 40 39 39 37 37 39 38 34 33 32 32 33 32
116 117 118 117 116 115 114 114 114 115 117 116 105 105 101 96 98 99 93 90 87 80 73 72 67 67 64 62 55 49 47 43 41 39 39 41 42 40 35 31 32 34 35
115 118 121 124 124 122 121 120 118 117 116 117 121 116 109 108 107 104 100 97 96 89 81 76 74 73 72 67 63 57 55 51 47 47 48 44 45 41 26 26 26 29 32
119 120 122 125 128 130 129 127 126 125 123 121 119 124 127 123 118 114 109 107 104 97 87 82 80 77 76 75 71 65 63 59 56 53 52 49 43 45 39 37 41 40 30
122 123 125 127 128 131 134 135 134 133 131 130 128 127 124 125 128 128 124 118 115 109 98 88 86 83 81 79 80 77 75 72 67 64 61 59 54 48 48 44 46 43 38
124 124 125 127 129 132 133 136 139 139 138 137 136 136 133 130 126 130 129 126 119 111 106 100 93 89 87 87 85 83 80 78 81 78 71 66 63 58 57 52 51 45 43
112 116 120 122 125 128 131 134 135 136 140 143 144 143 141 138 135 131 128 126 124 119 113 107 103 98 94 93 92 89 87 84 80 79 78 76 74 69 63 63 56 52 48
105 106 107 111 115 118 122 127 130 133 136 140 144 147 148 145 142 139 136 133 130 127 123 117 111 107 103 99 98 96 94 92 91 84 84 84 83 79 74 68 65 60 55
105 106 107 108 109 110 112 115 118 122 128 134 137 139 142 145 146 145 144 141 137 134 130 125 120 116 110 106 104 101 100 99 98 96 91 89 89 90 86 81 76 73 68
98 100 103 105 105 105 105 106 108 111 116 120 124 129 135 139 141 143 144 146 146 142 138 133 127 122 118 116 111 106 105 104 102 101 101 98 95 97 98 93 89 83 82
89 90 90 92 93 96 98 99 101 105 103 103 109 116 120 123 127 132 137 140 140 140 139 138 136 131 124 119 119 117 111 108 107 106 105 105 104 102 103 103 100 97 93
Wind_Direction
242 254 263 268 264 267 277 281 288 300 305 294 282 290 263 299 308 317 329 345 354 6 6 7 12 8 20 39 42 40 49 58 51 57 69 72 82 93 99 95 98 96 90
244 252 266 268 268 276 272 277 280 286 291 296 296 287 285 287 286 299 317 329 329 346 351 354 4 360 5 18 34 33 35 42 48 64 78 104 108 121 117 105 90 93 85
260 247 257 256 264 265 272 275 280 280 281 283 284 290 300 299 291 286 294 301 309 319 331 341 345 354 348 350 3 29 39 44 55 70 95 144 152 143 147 99 116 104 92
238 244 236 243 257 258 249 253 271 274 267 266 268 277 284 289 295 297 289 289 293 298 301 301 321 332 339 342 344 349 13 22 46 87 119 154 185 184 186 181 141 138 126
227 238 242 235 249 254 253 236 239 255 270 271 269 292 276 274 277 284 294 290 285 287 289 288 293 305 319 328 327 323 320 328 328 33 163 171 198 205 219 213 199 181 168
225 233 223 233 242 247 252 246 252 255 253 260 273 284 284 274 275 281 285 292 289 284 282 282 288 291 300 306 311 307 306 307 285 285 214 203 221 227 222 229 237 223 225
229 237 230 231 237 240 235 240 246 252 248 242 253 275 281 268 274 281 288 284 280 280 280 280 280 282 286 293 295 298 302 297 299 282 249 215 217 224 230 230 235 234 235
226 228 230 227 232 232 228 227 234 235 238 225 230 252 262 278 279 282 287 282 283 282 283 282 279 275 275 273 279 285 288 291 284 278 264 244 231 225 228 234 241 243 254
227 223 229 233 228 230 227 227 226 229 231 228 231 239 249 260 272 277 280 284 284 277 277 280 280 278 271 267 267 271 274 278 284 280 269 262 252 248 243 237 243 246 249
219 223 225 231 227 225 234 226 226 231 229 232 237 246 257 251 264 266 272 278 274 274 271 276 278 274 271 268 262 262 263 265 271 274 272 262 255 247 255 248 240 245 254
224 223 225 226 230 230 230 236 232 231 233 235 240 246 250 255 256 263 262 272 277 270 261 263 267 270 272 269 263 257 257 257 257 265 270 267 259 247 251 256 248 240 245
230 228 228 227 228 232 231 234 239 238 235 239 241 246 252 254 256 258 260 265 270 268 266 260 264 263 264 264 263 263 263 262 255 256 266 270 265 259 252 254 259 255 246
233 232 232 233 232 233 237 240 245 245 245 245 244 251 253 254 254 260 259 260 268 265 261 261 263 262 259 257 258 260 262 261 259 256 255 261 263 258 253 254 258 261 265
235 234 234 235 236 235 235 238 240 243 246 247 248 250 247 249 252 254 254 255 265 263 258 257 263 258 256 251 252 253 255 259 260 258 257 257 256 255 254 246 250 256 260
236 236 236 236 236 237 237 236 237 239 243 245 246 243 245 247 250 252 252 252 261 261 260 252 254 254 252 249 247 253 255 258 260 258 254 256 255 251 248 246 248 250 252
237 238 237 237 237 237 238 239 239 240 239 240 240 242 240 241 244 245 249 249 257 261 259 253 251 250 249 251 248 245 246 252 256 259 257 255 253 249 243 240 241 247 253
238 238 239 239 239 239 238 238 239 240 241 238 238 239 239 241 243 249 248 248 254 258 253 252 251 246 245 248 249 249 247 244 247 255 251 253 252 252 247 240 243 245 253
240 240 238 238 239 239 240 240 240 240 239 240 239 238 239 242 245 245 247 249 253 257 250 246 248 247 243 243 243 247 247 245 243 244 249 255 247 245 235 247 245 249 259
242 241 241 240 239 239 240 240 240 241 241 241 240 239 239 241 243 245 246 250 253 254 250 244 244 246 246 244 242 241 243 243 244 242 242 244 242 243 241 242 243 251 260
245 243 243 243 242 240 239 240 241 241 241 242 243 242 241 242 242 243 245 248 250 252 252 246 244 244 244 246 246 243 242 245 245 245 243 242 242 244 243 243 241 242 246
247 247 246 245 244 244 243 242 241 241 242 242 243 244 244 245 243 243 246 248 249 250 250 250 247 244 243 244 245 246 245 243 245 247 245 245 243 238 240 239 237 240 244
247 248 249 248 247 246 246 246 245 244 243 243 243 244 245 246 246 247 247 247 249 250 250 250 250 248 245 243 243 244 246 247 246 243 242 244 245 241 238 239 237 238 241
247 247 247 248 248 248 248 247 247 247 246 245 244 244 245 245 246 247 248 248 248 248 249 249 249 249 248 246 244 243 243 245 247 243 240 241 243 243 242 239 237 235 235
248 249 250 250 250 249 249 249 248 247 247 247 247 246 246 246 246 246 247 247 248 249 249 248 248 248 248 247 247 246 245 243 244 246 244 241 242 242 243 243 239 236 234
251 251 252 252 253 254 254 253 252 251 250 249 249 249 249 248 247 246 246 246 247 247 247 248 248 247 246 247 247 245 246 246 245 244 245 245 242 242 240 242 243 239 235
255 255 255 255 255 256 257 257 257 253 253 254 251 250 250 249 249 248 247 247 247 248 246 246 246 246 245 244 245 246 245 244 244 245 245 246 246 244 242 241 242 243 241
Height
11006 11010 11011 11012 11012 11013 11012 11013 11014 11014 11015 11015 11015 11014 11015 11016 11015 11017 11016 11015 11014 11013 11012 11012 11012 11011 11009 11007 11006 11006 11004 11003 11002 11000 10999 10999 10999 11000 10999 10999 10999 10999 10998
11002 11005 11007 11008 11009 11009 11011 11010 11012 11012 11013 11014 11014 11015 11015 11015 11015 11016 11016 11014 11014 11013 11013 11013 11012 11011 11011 11009 11007 11007 11006 11005 11004 11003 11003 11002 11003 11003 11003 11002 11002 11002 11001
10997 11000 11002 11001 11003 11003 11006 11007 11008 11009 11010 11011 11012 11012 11013 11014 11014 11014 11014 11014 11013 11012 11012 11014 11013 11012 11011 11010 11008 11007 11006 11006 11005 11004 11005 11005 11005 11005 11004 11005 11005 11005 11005
10989 10992 10994 10994 10997 10998 10998 11001 11004 11004 11004 11005 11006 11008 11010 11010 11011 11011 11011 11010 11011 11010 11010 11012 11013 11012 11011 11011 11009 11008 11007 11006 11006 11005 11005 11005 11005 11006 11007 11006 11007 11007 11007
10981 10983 10985 10986 10989 10991 10992 10992 10994 10997 10999 11001 11001 11003 11005 11006 11007 11008 11008 11008 11007 11007 11007 11008 11010 11010 11010 11010 11008 11007 11007 11006 11005 11004 11004 11004 11005 11006 11006 11007 11007 11007 11007
10968 10973 10978 10978 10981 10982 10984 10985 10985 10989 10991 10995 10998 10997 11000 11000 11002 11002 11002 11002 11003 11003 11003 11003 11005 11006 11007 11007 11007 11006 11006 11005 11003 11003 11003 11003 11003 11004 11005 11006 11006 11006 11005
10957 10962 10965 10966 10969 10972 10975 10976 10977 10980 10983 10986 10989 10991 10993 10996 10997 10997 10996 10996 10997 10998 10998 10999 11000 11001 11003 11003 11004 11004 11003 11003 11003 11002 11002 11002 11001 11001 11003 11004 11003 11003 11003
10943 10947 10952 10954 10957 10960 10962 10964 10968 10971 10973 10974 10977 10985 10988 10988 10988 10992 10993 10991 10990 10992 10993 10994 10995 10996 10997 10998 10998 10999 10998 10998 10998 10998 10998 10998 10997 10998 10998 10999 11000 11001 11000
10929 10935 10939 10942 10945 10947 10950 10953 10957 10959 10962 10964 10964 10968 10974 10980 10981 10986 10986 10985 10984 10985 10986 10988 10989 10989 10991 10993 10993 10992 10992 10992 10992 10991 10992 10992 10992 10993 10993 10994 10994 10996 10996
10911 10918 10923 10928 10931 10934 10935 10937 10942 10946 10947 10953 10955 10957 10962 10965 10969 10975 10977 10979 10977 10978 10979 10979 10980 10982 10984 10985 10985 10986 10984 10985 10985 10984 10984 10984 10985 10987 10987 10987 10988 10989 10990
10894 10899 10905 10911 10915 10919 10922 10924 10926 10930 10934 10938 10941 10944 10947 10951 10956 10962 10966 10968 10968 10970 10971 10969 10970 10972 10976 10976 10976 10976 10974 10978 10979 10978 10978 10978 10980 10981 10981 10980 10981 10983 10985
10869 10878 10885 10891 10895 10899 10903 10907 10909 10913 10916 10921 10926 10929 10932 10935 10941 10947 10951 10954 10957 10958 10958 10961 10962 10963 10966 10968 10968 10966 10966 10969 10971 10971 10971 10971 10974 10976 10977 10975 10975 10976 10977
10845 10853 10860 10866 10874 10880 10884 10887 10889 10892 10897 10904 10908 10912 10916 10918 10921 10928 10936 10941 10944 10946 10947 10949 10951 10952 10954 10956 10957 10958 10958 10957 10959 10963 10963 10962 10965 10967 10968 10969 10969 10969 10969
10818 10826 10833 10840 10848 10857 10863 10868 10871 10873 10876 10882 10888 10893 10899 10901 10905 10912 10919 10924 10930 10934 10937 10936 10936 10939 10941 10944 10945 10947 10948 10948 10951 10952 10952 10953 10956 10958 10958 10959 10960 10962 10963
10791 10798 10806 10814 10822 10830 10837 10845 10850 10855 10858 10859 10865 10871 10876 10880 10885 10892 10897 10906 10913 10918 10921 10920 10921 10925 10928 10931 10935 10937 10938 10939 10940 10940 10942 10943 10945 10947 10948 10951 10953 10953 10954
10761 10770 10779 10787 10795 10803 10810 10816 10823 10830 10837 10840 10845 10849 10855 10857 10861 10870 10878 10886 10894 10901 10907 10906 10907 10912 10915 10917 10921 10923 10925 10927 10928 10930 10933 10934 10934 10937 10938 10941 10943 10945 10947
10729 10740 10749 10757 10765 10772 10779 10787 10794 10801 10808 10817 10822 10828 10832 10836 10838 10846 10857 10865 10871 10879 10886 10889 10889 10893 10899 10903 10906 10909 10912 10914 10916 10917 10919 10921 10924 10925 10927 10930 10933 10936 10938
10697 10706 10715 10723 10731 10739 10747 10755 10763 10771 10779 10786 10793 10801 10805 10810 10815 10821 10831 10842 10847 10855 10864 10868 10871 10873 10879 10885 10890 10894 10896 10898 10901 10902 10906 10908 10911 10914 10916 10921 10924 10926 10929
10663 10672 10678 10685 10695 10704 10713 10722 10729 10737 10744 10752 10761 10768 10777 10784 10791 10796 10804 10814 10822 10831 10839 10845 10849 10853 10860 10866 10871 10875 10878 10881 10885 10888 10891 10895 10899 10903 10905 10908 10911 10913 10914
10628 10636 10642 10648 10658 10667 10675 10683 10692 10701 10710 10718 10724 10732 10741 10754 10760 10767 10775 10784 10796 10804 10810 10820 10826 10833 10838 10843 10849 10855 10861 10864 10867 10872 10876 10880 10884 10887 10890 10892 10895 10898 10902
10592 10599 10606 10615 10622 10628 10636 10646 10655 10664 10673 10680 10688 10694 10704 10715 10727 10736 10743 10755 10765 10775 10782 10790 10800 10808 10814 10819 10824 10829 10837 10842 10846 10852 10858 10861 10865 10869 10872 10875 10879 10884 10889
10559 10564 10569 10577 10584 10593 10601 10607 10618 10628 10635 10641 10647 10654 10663 10675 10687 10699 10711 10720 10730 10739 10749 10760 10769 10778 10785 10792 10798 10805 10812 10818 10823 10831 10837 10841 10844 10848 10852 10857 10861 10864 10870
10524 10530 10536 10541 10545 10551 10558 10567 10575 10584 10592 10598 10606 10615 10622 10635 10647 10659 10670 10679 10690 10703 10713 10724 10734 10744 10753 10762 10770 10777 10786 10792 10796 10803 10810 10816 10821 10825 10830 10835 10840 10843 10846
10493 10497 10502 10507 10512 10517 10523 10527 10533 10541 10549 10555 10565 10575 10584 10593 10606 10617 10626 10637 10649 10660 10672 10685 10698 10709 10719 10728 10737 10747 10755 10763 10769 10775 10783 10790 10796 10801 10805 10811 10816 10819 10822
10465 10469 10473 10477 10482 10486 10491 10494 10500 10506 10511 10517 10527 10533 10541 10550 10560 10570 10579 10589 10600 10614 10629 10640 10655 10670 10684 10693 10701 10712 10722 10730 10739 10746 10752 10761 10767 10771 10777 10782 10788 10794 10798
10438 10441 10446 10450 10455 10458 10461 10465 10467 10464 10474 10485 10486 10489 10496 10504 10513 10524 10537 10546 10554 10566 10582 10598 10611 10625 10641 10657 10667 10675 10687 10698 10706 10713 10720 10727 10735 10741 10748 10754 10760 10766 10771